TimeCDT,TemperatureF,Dew PointF,Humidity,Sea Level PressureIn,VisibilityMPH,Wind Direction,Wind SpeedMPH,Gust SpeedMPH,PrecipitationIn,Events,Conditions,WindDirDegrees,DateUTC
12:52 AM,66.0,64.0,93,29.91,10.0,Calm,Calm,-,N/A,,Clear,0,2013-08-19 05:52:00
1:52 AM,62.1,61.0,96,29.91,6.0,Calm,Calm,-,N/A,,Clear,0,2013-08-19 06:52:00
2:52 AM,64.0,62.1,93,29.89,9.0,Calm,Calm,-,N/A,,Clear,0,2013-08-19 07:52:00
3:52 AM,62.1,60.1,93,29.88,9.0,Calm,Calm,-,N/A,,Clear,0,2013-08-19 08:52:00
4:52 AM,59.0,57.9,96,29.88,6.0,Calm,Calm,-,N/A,,Clear,0,2013-08-19 09:52:00
4:59 AM,59.0,57.9,96,29.90,1.8,Calm,Calm,-,N/A,,Clear,0,2013-08-19 09:59:00
5:09 AM,59.0,57.9,96,29.90,3.0,Calm,Calm,-,N/A,,Clear,0,2013-08-19 10:09:00
5:52 AM,57.9,57.9,100,29.88,1.2,Calm,Calm,-,N/A,,Clear,0,2013-08-19 10:52:00
5:56 AM,57.0,57.0,100,29.90,0.5,Calm,Calm,-,N/A,Fog,Fog,0,2013-08-19 10:56:00
6:03 AM,57.9,57.0,97,29.91,1.0,WSW,3.5,-,N/A,,Clear,240,2013-08-19 11:03:00
6:07 AM,57.9,57.0,97,29.91,4.0,Calm,Calm,-,N/A,,Clear,0,2013-08-19 11:07:00
6:52 AM,57.9,57.0,97,29.88,8.0,Calm,Calm,-,N/A,,Clear,0,2013-08-19 11:52:00
7:13 AM,57.9,57.0,97,29.90,1.2,Calm,Calm,-,N/A,,Clear,0,2013-08-19 12:13:00
7:23 AM,59.0,57.0,93,29.91,9.0,Calm,Calm,-,N/A,,Clear,0,2013-08-19 12:23:00
7:52 AM,62.1,59.0,90,29.89,9.0,Calm,Calm,-,N/A,,Clear,0,2013-08-19 12:52:00
8:52 AM,66.0,61.0,84,29.91,10.0,Calm,Calm,-,N/A,,Clear,0,2013-08-19 13:52:00
9:52 AM,72.0,63.0,73,29.91,10.0,Calm,Calm,-,N/A,,Clear,0,2013-08-19 14:52:00
10:52 AM,77.0,64.9,66,29.89,10.0,Calm,Calm,-,N/A,,Clear,0,2013-08-19 15:52:00
11:52 AM,84.0,66.0,55,29.88,10.0,Calm,Calm,-,N/A,,Clear,0,2013-08-19 16:52:00
12:52 PM,89.1,62.1,40,29.85,10.0,SE,8.1,-,N/A,,Clear,140,2013-08-19 17:52:00
1:52 PM,93.0,54.0,27,29.83,10.0,SE,9.2,-,N/A,,Clear,140,2013-08-19 18:52:00
2:52 PM,93.9,53.1,25,29.81,10.0,Variable,3.5,-,N/A,,Clear,0,2013-08-19 19:52:00
3:52 PM,96.1,51.1,22,29.80,10.0,South,8.1,-,N/A,,Clear,180,2013-08-19 20:52:00
4:52 PM,96.1,50.0,21,29.78,10.0,SSE,9.2,-,N/A,,Clear,150,2013-08-19 21:52:00
5:52 PM,97.0,51.1,21,29.77,10.0,South,11.5,-,N/A,,Clear,190,2013-08-19 22:52:00
6:52 PM,95.0,51.1,22,29.76,10.0,South,11.5,-,N/A,,Clear,180,2013-08-19 23:52:00
7:52 PM,88.0,54.0,31,29.75,10.0,SSE,12.7,-,N/A,,Clear,160,2013-08-20 00:52:00
8:52 PM,86.0,51.1,30,29.75,10.0,South,12.7,-,N/A,,Clear,180,2013-08-20 01:52:00
9:52 PM,84.0,50.0,31,29.76,10.0,South,9.2,-,N/A,,Clear,190,2013-08-20 02:52:00
10:52 PM,82.9,51.1,33,29.76,10.0,SW,4.6,-,N/A,,Clear,230,2013-08-20 03:52:00
11:52 PM,80.1,51.1,36,29.76,10.0,SW,10.4,-,N/A,,Clear,220,2013-08-20 04:52:00